Regional Weather Roundup
Issued by NWS Midland/Odessa, TX

Skip options and go directly to product.
Home | Oldest Version | Next Version | Current Version | All | Text Only | Save Text | Print | Product List | Glossary On

Skip product version selection by date and time.   
300
ASUS44 KMAF 290810
RWRMAF
MIDLAND AREA WEATHER ROUNDUP
NATIONAL WEATHER SERVICE MIDLAND TX
300 AM CDT SUN MAY 29 2016

...IN SOUTHWEST TEXAS AND SOUTHEAST NEW MEXICO...

CITY           SKY/WX    TMP DP  RH WIND       PRES   REMARKS
ALPINE         CLEAR     64  56  75 SW6       30.10F
ANDREWS        CLOUDY    69  60  73 E17       30.03S
ARTESIA        CLEAR     63  28  27 NW5       30.01R
BIG SPRING     PTCLDY    63  59  88 NE23      30.05F THUNDER
CARLSBAD       CLEAR     71  59  65 SE7       29.98R
DRYDEN           N/A     73  70  90 E10       29.92S
FORT STOCKTON  NOT AVBL
GUAD PASS      NOT AVBL
HOBBS          CLEAR     64  55  72 E12       30.05S
MARFA          CLEAR     56  49  77 NW6       30.09S
MIDLAND AIRPK  CLOUDY    75  61  60 E15       30.03R
MIDLAND INTL   CLOUDY    74  60  61 E18       30.02R
ODESSA         PTCLDY    74  64  71 E18       30.01R
PECOS          PTCLDY    74  65  73 E10       29.93S
PRESIDIO       FAIR      79  60  52 N12       29.92R
SEMINOLE       CLEAR     65  58  79 E15G22    30.04S
SNYDER           N/A     63  59  86 E16       30.07S
WINK           NOT AVBL
$$
...OTHER STATIONS IN TEXAS...

CITY           SKY/WX    TMP DP  RH WIND       PRES   REMARKS
ABILENE        TSTM      64  62  93 E21G30    30.08F
AMARILLO       CLEAR     57  49  74 SE12      30.07F
AUSTIN         TSTM      75  74  96 SW5       30.05R
BROWNSVILLE    PTCLDY    79  77  94 SE7       29.92F
CORPUS CHRISTI MOCLDY    78  75  90 E6        29.96F
DALLAS FTW     CLOUDY    78  72  81 SE5       30.02S
DEL RIO        LGT RAIN  72  67  84 E15       29.93S
EL PASO        CLOUDY    74   6   7 SW14      30.00S
HOUSTON INT    CLOUDY    72  72 100 CALM      30.03S
LUBBOCK        PTCLDY    64  54  69 SE9       30.05S
SAN ANGELO     PTCLDY    73  64  73 SE12G23   30.00R
SAN ANTONIO    TSTM      75  73  93 NE10      30.03F
WACO           CLOUDY    76  70  82 S10       30.02R HAZE
WICHITA FALLS  NOT AVBL
$$
...OTHER LOCATIONS IN NEW MEXICO...

CITY           SKY/WX    TMP DP  RH WIND       PRES   REMARKS
ALAMAGORDO     PTCLDY    64   7  10 E8        30.01S
ALBUQUERQUE    CLOUDY    65  21  18 E3        30.09S
CANNON AFB     CLEAR     58  50  75 SE6       30.09R
CLOVIS         CLEAR     55  46  71 E6        30.08S
HOLLOMAN AFB   PTCLDY    59  10  14 NW9       30.00R
ROSWELL        CLEAR     66  28  24 CALM      30.01S
RUIDOSO          N/A     50  10  20 S6        30.22S
SANTA FE       CLOUDY    52  21  29 NE6       30.16S
TRUTH OR CONSE CLEAR     60   8  12 W9        30.06R
TUCUMCARI      CLEAR     65  47  52 VRB5      30.05S
$$

USA.gov is the U.S. government's official web portal to all federal, state and local government web resources and services.